cubair logo

For once you have tasted flight you will walk the earth with your eyes turned skywards,
for there you have been and there you will long to return.


"Leonardo da Vinci"

Welcome To CubAir Flight!

Cub Air Flight was founded in 2006, by Steve and Sharon Krog. Cub Air Flight school uses vintage Piper J3 Cub aircraft to instruct in, following a philosophy that “old school is still cool.” Cub Air Flight believes that these fine classic airplanes make better pilots by requiring more attention and flying skill than newer airplanes. We at Cub Air Flight hold that flying a vintage airplane is as much an art as it is a science.

The Piper J3 Cub is revered among aviators as a truly classic and iconic airplane. It has served as a trainer to more pilots than almost any airplane, earning a reputation as easy to fly but yet challenging enough to force students to continually better themselves. Cub Air uses two J3 Cubs, restored and maintained with the same attention to detail as a lovingly restored classic car. Cub Air also uses a Piper Cherokee for training requiring an aircraft with more advanced instruments.

Come fly with us and feel the freedom of
flying, the way it's supposed to be!


"Old School Is Still Cool!"

 

Our Instructors

Steve Krog

Find Us Here!

Hartford Municipal

Airport (KHXF)

4200 Highway U

Hartford, WI 53027

Our Staff

Steve Krog
Sharon Krog
Jamie Weber
Chris Hibben

Oshkosh Weather

[Source: ADDS]
METAR
KOSH 260753Z AUTO 19011KT 10SM CLR 19/16 A3005 RMK AO2 SLP164 T01940161 =
TAF
KOSH 260528Z 2606/2706 19007KT P6SM SCT060 BKN090 WS020/23035KT FM260900 20007KT P6SM BKN060 WS020/24035KT FM261200 20008KT P6SM VCSH SCT040 BKN060 FM261500 23009KT 6SM -TSRA BKN035CB FM261800 23008KT P6SM BKN035 BKN100 FM270100 25004KT P6SM BKN120 =

West Bend Weather

[Source: ADDS]
METAR
KETB 260815Z AUTO 20004KT 10SM CLR 18/15 A3009 RMK AO2 =
TAF

Juneau Weather

[Source: ADDS]
METAR
KUNU 260815Z AUTO 16006KT 10SM CLR 19/16 A3009 RMK AO2 T01850158 =
TAF

Fond Du Lac Weather

[Source: ADDS]
METAR
KFLD 260753Z AUTO 18009KT 10SM CLR 19/15 A3006 RMK AO2 SLP176 T01940150 =
TAF